• En España
  • Lista de países
  • Para 7 días
  • Temperatura del agua
  • Mapa Satelital
  • El tiempo en el mapa
  • Informadores
  • user-avatar
    Iniciar sesión

    Tiempo cada hora Elbasan

    Hoy, 20 Febrero, Martes

    Tiempo Temperatura Precipitaciones Viento Presión Humedad
    00:00 +7°C° 0,2 mm 2 mps 731 mmHg 86%
    01:00 +7°C° 0,2 mm 2 mps 731 mmHg 86%
    02:00 +7°C° 0,2 mm 2 mps 731 mmHg 86%
    03:00 +7°C° 0,2 mm 2 mps 731 mmHg 86%
    04:00 +6°C° 0,2 mm 2 mps 730 mmHg 86%
    05:00 +6°C° 0,2 mm 2 mps 730 mmHg 86%
    06:00 +6°C° 0,2 mm 2 mps 730 mmHg 85%
    07:00 +6°C° 0,2 mm 2 mps 730 mmHg 85%
    08:00 +7°C° 0,2 mm 3 mps 730 mmHg 83%
    09:00 +8°C° 0,2 mm 3 mps 730 mmHg 81%
    10:00 +9°C° 0,2 mm 3 mps 730 mmHg 79%
    11:00 +9°C° 0,5 mm 3 mps 729 mmHg 78%
    12:00 +9°C° 0,5 mm 3 mps 729 mmHg 78%
    13:00 +10°C° 0,5 mm 3 mps 729 mmHg 77%
    14:00 +9°C° 1,7 mm 2 mps 728 mmHg 81%
    15:00 +8°C° 1,7 mm 2 mps 728 mmHg 84%
    16:00 +8°C° 1,7 mm 2 mps 728 mmHg 87%
    17:00 +8°C° 0,6 mm 2 mps 728 mmHg 87%
    18:00 +7°C° 0,6 mm 2 mps 727 mmHg 86%
    19:00 +7°C° 0,6 mm 3 mps 727 mmHg 86%
    20:00 +7°C° 0,2 mm 3 mps 727 mmHg 86%
    21:00 +7°C° 0,2 mm 3 mps 727 mmHg 86%
    22:00 +5°C° 0,2 mm 3 mps 727 mmHg 85%
    23:00 +5°C° 0,1 mm 3 mps 727 mmHg 85%

    Mañana, 21 Febrero, Miércoles

    Tiempo Temperatura Precipitaciones Viento Presión Humedad
    00:00 +5°C° 0,1 mm 3 mps 727 mmHg 85%
    01:00 +5°C° 0,1 mm 3 mps 727 mmHg 85%
    02:00 +5°C° 0,1 mm 3 mps 727 mmHg 85%
    03:00 +5°C° 0,1 mm 3 mps 727 mmHg 86%
    04:00 +4°C° 0,1 mm 3 mps 727 mmHg 86%
    05:00 +4°C° 0 mm 3 mps 727 mmHg 85%
    06:00 +4°C° 0 mm 3 mps 727 mmHg 85%
    07:00 +4°C° 0 mm 3 mps 727 mmHg 85%
    08:00 +7°C° 0,1 mm 3 mps 727 mmHg 83%
    09:00 +8°C° 0,1 mm 3 mps 727 mmHg 81%
    10:00 +9°C° 0,1 mm 3 mps 727 mmHg 79%
    11:00 +9°C° 0,3 mm 3 mps 727 mmHg 79%
    12:00 +9°C° 0,3 mm 3 mps 727 mmHg 79%
    13:00 +10°C° 0,3 mm 3 mps 727 mmHg 79%
    14:00 +9°C° 0,3 mm 3 mps 726 mmHg 79%
    15:00 +9°C° 0,3 mm 3 mps 726 mmHg 80%
    16:00 +9°C° 0,3 mm 3 mps 726 mmHg 81%
    17:00 +9°C° 0,6 mm 3 mps 726 mmHg 82%
    18:00 +8°C° 0,6 mm 3 mps 726 mmHg 83%
    19:00 +8°C° 0,6 mm 3 mps 726 mmHg 85%
    20:00 +8°C° 0,5 mm 3 mps 726 mmHg 85%
    21:00 +7°C° 0,5 mm 3 mps 727 mmHg 85%
    22:00 +7°C° 0,5 mm 3 mps 727 mmHg 85%
    23:00 +7°C° 0,7 mm 3 mps 727 mmHg 86%

    Pasado mañana, 22 Febrero, Jueves

    Tiempo Temperatura Precipitaciones Viento Presión Humedad
    00:00 +7°C° 0,7 mm 3 mps 727 mmHg 87%
    01:00 +7°C° 0,7 mm 3 mps 727 mmHg 89%
    02:00 +7°C° 0,3 mm 3 mps 727 mmHg 88%
    03:00 +7°C° 0,3 mm 3 mps 727 mmHg 88%
    04:00 +5°C° 0,3 mm 3 mps 727 mmHg 87%
    05:00 +5°C° 0 mm 3 mps 727 mmHg 87%
    06:00 +5°C° 0 mm 3 mps 728 mmHg 87%
    07:00 +5°C° 0 mm 3 mps 728 mmHg 86%
    08:00 +7°C° 0 mm 3 mps 728 mmHg 83%
    09:00 +9°C° 0 mm 3 mps 728 mmHg 79%
    10:00 +10°C° 0 mm 3 mps 729 mmHg 76%
    11:00 +11°C° 0 mm 3 mps 729 mmHg 74%
    12:00 +12°C° 0 mm 3 mps 728 mmHg 72%
    13:00 +12°C° 0 mm 3 mps 728 mmHg 70%
    14:00 +12°C° 0,1 mm 3 mps 728 mmHg 71%
    15:00 +12°C° 0,1 mm 3 mps 728 mmHg 72%
    16:00 +12°C° 0,1 mm 3 mps 728 mmHg 73%
    17:00 +11°C° 0,3 mm 3 mps 728 mmHg 76%
    18:00 +10°C° 0,3 mm 3 mps 729 mmHg 79%
    19:00 +9°C° 0,3 mm 3 mps 729 mmHg 81%
    20:00 +9°C° 0,2 mm 3 mps 729 mmHg 82%
    21:00 +8°C° 0,2 mm 3 mps 730 mmHg 83%
    22:00 +8°C° 0,2 mm 3 mps 730 mmHg 84%
    23:00 +8°C° 0,1 mm 3 mps 730 mmHg 84%

    23 Febrero, Viernes

    Tiempo Temperatura Precipitaciones Viento Presión Humedad
    00:00 +8°C° 0,1 mm 3 mps 730 mmHg 84%
    01:00 +7°C° 0,1 mm 2 mps 729 mmHg 85%
    02:00 +7°C° 0,1 mm 2 mps 729 mmHg 85%
    03:00 +7°C° 0,1 mm 2 mps 729 mmHg 85%
    04:00 +7°C° 0,1 mm 2 mps 729 mmHg 85%
    05:00 +7°C° 0,1 mm 2 mps 729 mmHg 85%
    06:00 +7°C° 0,1 mm 2 mps 730 mmHg 85%
    07:00 +8°C° 0,1 mm 2 mps 730 mmHg 85%
    08:00 +9°C° 0 mm 2 mps 730 mmHg 81%
    09:00 +10°C° 0 mm 2 mps 730 mmHg 77%
    10:00 +13°C° 0 mm 2 mps 730 mmHg 73%
    11:00 +13°C° 0 mm 2 mps 730 mmHg 69%
    12:00 +14°C° 0 mm 2 mps 730 mmHg 66%
    13:00 +15°C° 0 mm 2 mps 729 mmHg 62%
    14:00 +15°C° 0 mm 2 mps 729 mmHg 64%
    15:00 +14°C° 0 mm 2 mps 729 mmHg 65%
    16:00 +14°C° 0 mm 2 mps 729 mmHg 67%
    17:00 +13°C° 0 mm 2 mps 729 mmHg 71%
    18:00 +11°C° 0 mm 3 mps 729 mmHg 75%
    19:00 +9°C° 0 mm 3 mps 729 mmHg 79%
    20:00 +9°C° 0 mm 3 mps 729 mmHg 80%
    21:00 +9°C° 0 mm 3 mps 729 mmHg 81%
    22:00 +8°C° 0 mm 3 mps 729 mmHg 82%
    23:00 +7°C° 0 mm 4 mps 729 mmHg 82%

    24 Febrero, Sábado

    Tiempo Temperatura Precipitaciones Viento Presión Humedad
    00:00 +7°C° 0 mm 4 mps 729 mmHg 82%
    01:00 +7°C° 0 mm 4 mps 728 mmHg 82%
    02:00 +7°C° 0 mm 4 mps 728 mmHg 81%
    03:00 +7°C° 0 mm 4 mps 727 mmHg 81%
    04:00 +7°C° 0 mm 4 mps 727 mmHg 80%
    05:00 +7°C° 0,2 mm 4 mps 727 mmHg 80%
    06:00 +8°C° 0,2 mm 4 mps 726 mmHg 80%
    07:00 +8°C° 0,2 mm 4 mps 726 mmHg 80%
    08:00 +9°C° 0,3 mm 3 mps 726 mmHg 78%
    09:00 +10°C° 0,3 mm 3 mps 726 mmHg 77%
    10:00 +11°C° 0,3 mm 3 mps 727 mmHg 75%
    11:00 +11°C° 0,3 mm 3 mps 726 mmHg 73%
    12:00 +11°C° 0,3 mm 3 mps 726 mmHg 71%
    13:00 +12°C° 0,3 mm 4 mps 726 mmHg 69%
    14:00 +11°C° 0,1 mm 4 mps 726 mmHg 69%
    15:00 +11°C° 0,1 mm 4 mps 726 mmHg 70%
    16:00 +11°C° 0,1 mm 4 mps 726 mmHg 71%
    17:00 +10°C° 0,1 mm 3 mps 726 mmHg 73%
    18:00 +9°C° 0,1 mm 3 mps 726 mmHg 76%
    19:00 +8°C° 0,1 mm 3 mps 726 mmHg 78%
    20:00 +8°C° 0 mm 3 mps 726 mmHg 79%
    21:00 +7°C° 0 mm 3 mps 727 mmHg 79%
    22:00 +7°C° 0 mm 3 mps 727 mmHg 79%
    23:00 +5°C° 0 mm 3 mps 727 mmHg 79%

    25 Febrero, Domingo

    Tiempo Temperatura Precipitaciones Viento Presión Humedad
    00:00 +5°C° 0 mm 3 mps 727 mmHg 79%
    01:00 +5°C° 0 mm 3 mps 728 mmHg 79%
    02:00 +4°C° 0 mm 3 mps 728 mmHg 79%
    03:00 +4°C° 0 mm 3 mps 727 mmHg 79%
    04:00 +3°C° 0 mm 3 mps 727 mmHg 79%
    05:00 +3°C° 0 mm 3 mps 728 mmHg 78%
    06:00 +3°C° 0 mm 3 mps 728 mmHg 78%
    07:00 +3°C° 0 mm 3 mps 728 mmHg 77%
    08:00 +4°C° 0,1 mm 3 mps 728 mmHg 73%
    09:00 +5°C° 0,1 mm 3 mps 728 mmHg 70%
    10:00 +8°C° 0,1 mm 3 mps 728 mmHg 66%
    11:00 +8°C° 0,4 mm 3 mps 728 mmHg 69%
    12:00 +8°C° 0,4 mm 2 mps 727 mmHg 71%
    13:00 +9°C° 0,4 mm 2 mps 727 mmHg 73%
    14:00 +9°C° 0,6 mm 2 mps 727 mmHg 78%
    15:00 +8°C° 0,6 mm 2 mps 727 mmHg 82%
    16:00 +8°C° 0,6 mm 2 mps 727 mmHg 86%
    17:00 +7°C° 0,1 mm 2 mps 727 mmHg 88%
    18:00 +7°C° 0,1 mm 2 mps 728 mmHg 89%
    19:00 +7°C° 0,1 mm 2 mps 728 mmHg 91%
    20:00 +6°C° 0,1 mm 2 mps 728 mmHg 90%
    21:00 +6°C° 0,1 mm 2 mps 727 mmHg 89%
    22:00 +6°C° 0,1 mm 2 mps 727 mmHg 88%
    23:00 +5°C° 2,1 mm 3 mps 727 mmHg 89%
    Mostrar más